Simultaneous Nadir Overpasses (SNOs) Predictions

Prediction of SNOs between GOES-15 and NOAA-20 Satellite Orbit:

Table of predicted SNOs for the next 14.0 days since TLE Epoch: 6/29/2024
Index Date Time (GOES-15) GOES-15 Lat,Lon NOAA-20 Lat,Lon Distance(km) Time Diff (sec)
1 06/29/2024 09:26:44 0.19, 61.17 -0.28, 59.18 228.06 80
2 06/30/2024 09:10:40 0.18, 61.17 0.75, 63.70 288.90 80
3 07/01/2024 21:29:50 -0.21, 61.22 0.40, 58.42 318.69 80
4 07/02/2024 21:13:45 -0.20, 61.21 -0.59, 62.95 197.72 80
5 07/04/2024 09:33:03 0.24, 61.16 -0.55, 57.62 402.39 80
6 07/05/2024 09:16:59 0.23, 61.15 0.44, 62.16 113.94 80
7 07/06/2024 21:36:08 -0.26, 61.21 0.70, 56.87 493.93 80
8 07/07/2024 21:20:04 -0.25, 61.21 -0.29, 61.40 22.28 80
9 07/10/2024 09:20:38 0.26, 61.15 0.16, 60.61 61.68 80
10 07/11/2024 09:04:33 0.24, 61.15 1.15, 65.14 454.73 80
11 07/12/2024 21:23:41 -0.28, 61.21 0.03, 59.86 153.02 80
